Hourly Weather Kalamazoo

Today, 9 March, Tuesday

Time Temperature Precipitation Wind Pressure Humidity
00:00 +5°C° 0 mm 0 mps 744 mmHg 90%
01:00 +5°C° 0 mm 0 mps 744 mmHg 90%
02:00 +6°C° 0 mm 1 mps 745 mmHg 90%
03:00 +6°C° 0 mm 1 mps 745 mmHg 90%
04:00 +6°C° 0 mm 1 mps 745 mmHg 90%
05:00 +5°C° 0 mm 2 mps 745 mmHg 89%
06:00 +5°C° 0 mm 2 mps 745 mmHg 89%
07:00 +6°C° 0 mm 2 mps 745 mmHg 84%
08:00 +7°C° 0 mm 3 mps 745 mmHg 80%
09:00 +9°C° 0 mm 3 mps 745 mmHg 76%
10:00 +10°C° 0 mm 4 mps 745 mmHg 71%
11:00 +12°C° 0 mm 4 mps 745 mmHg 65%
12:00 +13°C° 0 mm 4 mps 745 mmHg 60%
13:00 +14°C° 0 mm 5 mps 744 mmHg 57%
14:00 +15°C° 0 mm 5 mps 743 mmHg 53%
15:00 +16°C° 0 mm 6 mps 742 mmHg 50%
16:00 +14°C° 0 mm 5 mps 742 mmHg 55%
17:00 +13°C° 0 mm 5 mps 742 mmHg 61%
18:00 +11°C° 0 mm 4 mps 742 mmHg 66%
19:00 +10°C° 0 mm 5 mps 742 mmHg 68%
20:00 +10°C° 0 mm 5 mps 742 mmHg 70%
21:00 +9°C° 0 mm 5 mps 742 mmHg 72%
22:00 +9°C° 0 mm 5 mps 741 mmHg 74%
23:00 +9°C° 0 mm 5 mps 741 mmHg 77%

Tomorrow, 10 March, Wednesday

Time Temperature Precipitation Wind Pressure Humidity
00:00 +8°C° 0 mm 6 mps 741 mmHg 79%
01:00 +9°C° 0 mm 6 mps 740 mmHg 79%
02:00 +9°C° 0 mm 6 mps 740 mmHg 79%
03:00 +9°C° 0 mm 6 mps 740 mmHg 80%
04:00 +9°C° 0 mm 6 mps 740 mmHg 79%
05:00 +9°C° 0 mm 7 mps 740 mmHg 79%
06:00 +9°C° 0 mm 7 mps 739 mmHg 78%
07:00 +10°C° 0.1 mm 7 mps 739 mmHg 78%
08:00 +10°C° 0.1 mm 8 mps 739 mmHg 78%
09:00 +10°C° 0.1 mm 8 mps 739 mmHg 77%
10:00 +11°C° 0 mm 9 mps 738 mmHg 76%
11:00 +12°C° 0 mm 9 mps 738 mmHg 74%
12:00 +13°C° 0 mm 9 mps 737 mmHg 73%
13:00 +13°C° 0 mm 9 mps 737 mmHg 73%
14:00 +13°C° 0 mm 9 mps 736 mmHg 74%
15:00 +13°C° 0 mm 9 mps 736 mmHg 74%
16:00 +12°C° 0 mm 9 mps 736 mmHg 77%
17:00 +12°C° 0 mm 8 mps 736 mmHg 80%
18:00 +12°C° 0 mm 8 mps 736 mmHg 83%
19:00 +12°C° 0.1 mm 8 mps 736 mmHg 84%
20:00 +12°C° 0.1 mm 8 mps 736 mmHg 85%
21:00 +12°C° 0.1 mm 8 mps 736 mmHg 87%
22:00 +12°C° 0 mm 8 mps 735 mmHg 86%
23:00 +12°C° 0 mm 8 mps 735 mmHg 85%

Day after tomorrow, 11 March, Thursday

Time Temperature Precipitation Wind Pressure Humidity
00:00 +12°C° 0 mm 8 mps 735 mmHg 84%
01:00 +12°C° 0 mm 8 mps 735 mmHg 86%
02:00 +12°C° 0 mm 8 mps 734 mmHg 88%
03:00 +12°C° 0 mm 7 mps 734 mmHg 89%
04:00 +12°C° 3.1 mm 7 mps 734 mmHg 91%
05:00 +13°C° 3.1 mm 6 mps 734 mmHg 93%
06:00 +13°C° 3.1 mm 5 mps 734 mmHg 95%
07:00 +13°C° 4.7 mm 6 mps 733 mmHg 95%
08:00 +13°C° 4.7 mm 6 mps 733 mmHg 95%
09:00 +13°C° 4.7 mm 6 mps 733 mmHg 95%
10:00 +11°C° 3 mm 6 mps 733 mmHg 93%
11:00 +10°C° 3 mm 6 mps 733 mmHg 90%
12:00 +9°C° 3 mm 6 mps 733 mmHg 87%
13:00 +8°C° 0.4 mm 6 mps 733 mmHg 82%
14:00 +7°C° 0.4 mm 5 mps 734 mmHg 77%
15:00 +6°C° 0.4 mm 5 mps 734 mmHg 72%
16:00 +5°C° 0 mm 4 mps 735 mmHg 74%
17:00 +5°C° 0 mm 3 mps 736 mmHg 75%
18:00 +4°C° 0 mm 3 mps 737 mmHg 76%
19:00 +4°C° 0 mm 3 mps 738 mmHg 79%
20:00 +3°C° 0 mm 3 mps 738 mmHg 81%
21:00 +3°C° 0 mm 2 mps 739 mmHg 83%
22:00 +3°C° 0 mm 2 mps 740 mmHg 82%
23:00 +2°C° 0 mm 2 mps 740 mmHg 82%

12 March, Friday

Time Temperature Precipitation Wind Pressure Humidity
00:00 +2°C° 0 mm 2 mps 741 mmHg 81%
01:00 +2°C° 0 mm 2 mps 741 mmHg 81%
02:00 +1°C° 0 mm 2 mps 741 mmHg 81%
03:00 +1°C° 0 mm 2 mps 742 mmHg 81%
04:00 +1°C° 0 mm 2 mps 742 mmHg 82%
05:00 -1°C° 0 mm 2 mps 742 mmHg 83%
06:00 -1°C° 0 mm 2 mps 743 mmHg 83%
07:00 +2°C° 0 mm 2 mps 743 mmHg 74%
08:00 +3°C° 0 mm 3 mps 743 mmHg 65%
09:00 +5°C° 0 mm 3 mps 744 mmHg 56%
10:00 +5°C° 0 mm 4 mps 744 mmHg 53%
11:00 +6°C° 0 mm 5 mps 744 mmHg 50%
12:00 +7°C° 0 mm 5 mps 744 mmHg 47%
13:00 +7°C° 0 mm 6 mps 744 mmHg 50%
14:00 +5°C° 0 mm 6 mps 744 mmHg 52%
15:00 +5°C° 0 mm 6 mps 744 mmHg 55%
16:00 +3°C° 0 mm 5 mps 745 mmHg 58%
17:00 +3°C° 0 mm 4 mps 745 mmHg 62%
18:00 +1°C° 0 mm 4 mps 745 mmHg 66%
19:00 0°C° 0 mm 4 mps 746 mmHg 62%
20:00 -1°C° 0 mm 4 mps 747 mmHg 58%
21:00 -2°C° 0 mm 4 mps 747 mmHg 54%
22:00 -2°C° 0 mm 3 mps 748 mmHg 53%
23:00 -4°C° 0 mm 3 mps 748 mmHg 52%

13 March, Saturday

Time Temperature Precipitation Wind Pressure Humidity
00:00 -4°C° 0 mm 3 mps 749 mmHg 51%
01:00 -5°C° 0 mm 3 mps 749 mmHg 52%
02:00 -4°C° 0 mm 2 mps 750 mmHg 52%
03:00 -4°C° 0 mm 2 mps 750 mmHg 53%
04:00 -4°C° 0 mm 2 mps 750 mmHg 52%
05:00 -4°C° 0 mm 2 mps 751 mmHg 51%
06:00 -5°C° 0 mm 3 mps 751 mmHg 50%
07:00 -4°C° 0 mm 2 mps 751 mmHg 46%
08:00 -3°C° 0 mm 2 mps 751 mmHg 42%
09:00 -2°C° 0 mm 2 mps 752 mmHg 37%
10:00 -1°C° 0 mm 2 mps 752 mmHg 34%
11:00 +3°C° 0 mm 1 mps 751 mmHg 31%
12:00 +5°C° 0 mm 1 mps 751 mmHg 28%
13:00 +5°C° 0 mm 1 mps 751 mmHg 29%
14:00 +5°C° 0 mm 1 mps 751 mmHg 30%
15:00 +4°C° 0 mm 2 mps 750 mmHg 31%
16:00 +2°C° 0 mm 2 mps 750 mmHg 39%
17:00 -1°C° 0 mm 2 mps 750 mmHg 48%
18:00 -2°C° 0 mm 3 mps 750 mmHg 56%
19:00 -2°C° 0 mm 2 mps 750 mmHg 59%
20:00 -3°C° 0 mm 2 mps 750 mmHg 61%
21:00 -3°C° 0 mm 2 mps 750 mmHg 64%
22:00 -3°C° 0 mm 2 mps 750 mmHg 63%
23:00 -3°C° 0 mm 2 mps 749 mmHg 62%

14 March, Sunday

Time Temperature Precipitation Wind Pressure Humidity
00:00 -3°C° 0 mm 2 mps 749 mmHg 62%
01:00 -3°C° 0 mm 2 mps 749 mmHg 60%
02:00 -3°C° 0 mm 2 mps 749 mmHg 59%
03:00 -3°C° 0 mm 2 mps 749 mmHg 58%
04:00 -3°C° 0 mm 2 mps 749 mmHg 57%
05:00 -3°C° 0 mm 2 mps 749 mmHg 56%
06:00 -3°C° 0 mm 2 mps 749 mmHg 55%
07:00 -2°C° 0 mm 2 mps 749 mmHg 48%
08:00 +1°C° 0 mm 2 mps 748 mmHg 42%
09:00 +2°C° 0 mm 3 mps 748 mmHg 36%
10:00 +3°C° 0 mm 3 mps 748 mmHg 34%
11:00 +4°C° 0 mm 3 mps 747 mmHg 32%
12:00 +5°C° 0 mm 3 mps 747 mmHg 29%
13:00 +7°C° 0 mm 3 mps 746 mmHg 32%
14:00 +7°C° 0 mm 2 mps 745 mmHg 35%
15:00 +7°C° 0 mm 2 mps 745 mmHg 37%
16:00 +6°C° 0 mm 2 mps 744 mmHg 44%
17:00 +4°C° 0 mm 2 mps 743 mmHg 51%
18:00 +2°C° 0 mm 3 mps 742 mmHg 57%
19:00 +2°C° 0 mm 3 mps 742 mmHg 58%
20:00 +1°C° 0 mm 3 mps 742 mmHg 59%
21:00 +1°C° 0 mm 3 mps 742 mmHg 60%
22:00 0°C° 0.1 mm 4 mps 741 mmHg 60%
23:00 0°C° 0.1 mm 5 mps 740 mmHg 60%
Show more

We Need Your Consent

Meteoprog and our Service Providers may store and access personal data such as cookies, device identifiers or other similar technologies on your device and process such data to personalise content and ads, as well as provide social media features and to analyse the traffic.

  • Store and/or access information on your device

    Cookies, device identifiers or other information can be stored or accessed on your device for the purposes indicated above.

  • Personalised ads and content, ad and content measurement, audience insights, and products development

    Ads and content can be personalised based on a profile. More data can be added to better personalise ads and content. Ad and content performance can be measured. Insights about the audience who saw the ads and content can be derived. Such data can be used to develop or improve user’s experience, systems and software.

By clicking ‘I Agree’ you will allow the use of indicated cookies, device identifiers, web beacons or other similar technologies. Your settings can be changed in the browser on your device.

For certain purposes, legitimate interests may be relied on, rather than consent. You can read more about this in our Privacy and Cookie Policy.